Location: Temple Hill
(37.3073°N, 88.6303°W)
Time: 15:54:45
(UTC+00:00)

Envisat - Pass Details

Date: 23 November 2020
Orbit: 764 x 766 km, 98.1° (Epoch: 20 January)

Event Time Altitude Azimuth Distance (km) Brightness Sun altitude
Rises 23:10:20 0° 172° (S) 3,215 6.4 -6.5°
Reaches altitude 10° 23:12:38 10° 174° (S) 2,294 5.7 -6.9°
Maximum altitude 23:17:40 71° 258° (WSW) 812 3.4 -7.9°
Drops below altitude 10° 23:22:45 10° 343° (NNW) 2,310 5.5 -8.8°
Sets 23:25:05 0° 345° (NNW) 3,240 6.2 -9.3°
